< < Back
Terminal Aerodrome Forecast


Current Version              Previous Versions:   1  2  3  4  5  6  7  8  9  

Terminal Aerodrome Forecast

125
FTUS44 KBMX 220100 AAA
TAFMGM
TAF AMD
KMGM 220112Z 2201/2224 30004KT P6SM SKC
     FM221400 01005KT P6SM SKC=

Latest METAR

628
SAUS80 KWBC 220100
MTRMGM
METAR KMGM 220053Z 30004KT 10SM CLR 19/12 A2999 RMK AO2 SLP154
T01890122


USA.gov is the U.S. government's official web portal to all federal, state and local government web resources and services.